Regional Weather Roundup
Issued by NWS

Home | Current Version | Previous Version | Text Only | Print | Product List | Glossary On
Versions: 1 2 3 4 5 6 7 8 9 10 11 12 13 14 15 16 17 18 19 20 21 22 23 24 25 26 27 28 29 30 31 32 33 34 35 36 37 38 39 40 41 42 43 44 45 46 47 48 49 50
000
ASUS46 KLOX 180012
RWRCA

SOUTHERN CALIFORNIA WEATHER ROUNDUP
NATIONAL WEATHER SERVICE OXNARD CALIFORNIA
500 PM PDT WED SEP 17 2014

NOTE: "FAIR" INDICATES FEW OR NO CLOUDS BELOW 12,000 FEET WITH NO
SIGNIFICANT WEATHER AND/OR OBSTRUCTIONS TO VISIBILITY.

  -  STATIONS PRECEEDED BY AN ASTERISK (*) ARE NOT NWS OR FAA
     STATIONS AND ARE NOT SUBJECT TO NWS AND FAA QUALITY CONTROL.

CAZ041-042-087-180100-
LA AND ORANGE COUNTY COASTAL AREAS


CITY           SKY/WX    TMP DP  RH WIND       PRES   REMARKS
L.A. DOWNTOWN  SUNNY     87  51  28 CALM      29.69F
L.A. AIRPORT   MOSUNNY   80  55  42 W20G26    29.70F
LONG BEACH     SUNNY     86  52  30 W16G25    29.70F

CITY           SKY/WX    TMP DP  RH WIND       PRES   REMARKS
AVALON           N/A     86 N/A N/A MISG        N/A
FULLERTON      SUNNY     91  46  21 W10G18    29.68F
*GETTY CENTER    N/A     93  50  22 S8          N/A  HX  90
HAWTHORNE      SUNNY     81  56  42 W18G30    29.70F
*LEO CARRILLO    N/A     83  58  41 W14G25      N/A
*LOS ALAMITOS  SUNNY     89  51  26 W15       29.70F
*REDONDO BEACH   N/A     77  64  63 SW3       29.71F
SANTA ANA      MOSUNNY   91  49  23 W6        29.70F
STA MONICA APT SUNNY     84  55  36 SW7       29.69F
TORRANCE       MOSUNNY   88  55  33 W23       29.70F
*UCLA            N/A     88  52  29 SE5       29.67S

$$

CAZ547-548-048-180100-
LA COUNTY VALLEYS AND INLAND EMPIRE


CITY           SKY/WX    TMP DP  RH WIND       PRES   REMARKS
BURBANK        SUNNY     93  52  24 S7        29.71F HX  90
VAN NUYS       SUNNY     95  49  20 NW10      29.70F HX  92

CITY           SKY/WX    TMP DP  RH WIND       PRES   REMARKS
CORONA AIRPORT CLEAR     94  59  31 W15G24    29.69F HX  93
*CHATSWORTH      N/A     92  53  26 W6        29.66R
CHINO          MOSUNNY   94  57  28 SW18      29.70F HX  92
MARCH AFB      SUNNY     94  59  30 NW16      29.74F HX  93
*NORTHRIDGE      N/A     93  45  18 W5G10       N/A
ONTARIO        MOSUNNY   94  57  28 SW17G24   29.70F HX  92
*PASADENA        N/A     95  55  26 E6          N/A  HX  93
RIVERSIDE      SUNNY     94  58  29 W16       29.70F HX  93
SAN BERNARDINO NOT AVBL
*SAN GABRIEL     N/A     92  45  19 CALM      29.64F
*SAN RAFAEL HI   N/A     95  56  26 E7          N/A  HX  93
*SAUGUS          N/A     96  50  20 SW14        N/A  HX  93
*WHITEMAN AP   SUNNY     93  54  26 S7        29.75F HX  91
*WOODLAND HILL   N/A     93  41  16 SW10        N/A

$$

CAZ054-055-180100-
LA AND SAN BERNARDINO COUNTY MOUNTAINS


CITY           SKY/WX    TMP DP  RH WIND       PRES   REMARKS
*BIG BEAR AIRP CLOUDY    70  54  56 W5        30.13F
*CHILAO          N/A     82  52  34 SW10        N/A
MT WILSON NWS    N/A     79  52  38 W10         N/A
SANDBERG       SUNNY     86  40  19 NW15G26   29.98S
*WARM SPRINGS    N/A     87  48  25 S2          N/A

$$

CAZ028-029-059-060-099-180100-
ANTELOPE VALLEY AND SURROUNDING AREAS


CITY           SKY/WX    TMP DP  RH WIND       PRES   REMARKS
LANCASTER      MOSUNNY   94  50  22 SW20      29.78S HX  91
PALMDALE       MOSUNNY   95  53  24 SW21      29.79F HX  92
*POPPY PARK      N/A     95  51  22 SW16G29     N/A  HX  92

CITY           SKY/WX    TMP DP  RH WIND       PRES   REMARKS
29 PALMS       SUNNY     95  56  26 VRB6      29.82F HX  93
BARSTOW/DAGGET SUNNY     99  51  19 NE6       29.74F HX  96
BISHOP         MOSUNNY   92  43  18 S20G28    29.80F
CHINA LAKE     MOSUNNY  101  46  15 S10       29.72F HX  97
EDWARDS AFB    MOSUNNY   98  52  21 SW17G24   29.74F HX  95
MOJAVE           N/A     93  39  15 W21G29    29.80S
NEEDLES        SUNNY     98  60  28 E3        29.70F HX  98
VICTORVILLE    MOSUNNY   93  48  21 SE3       29.81S HX  90

$$

CAZ039-040-180100-
VENTURA AND SANTA BARBARA COUNTY COAST


CITY           SKY/WX    TMP DP  RH WIND       PRES   REMARKS
CAMARILLO      SUNNY     83  58  42 SW9G18    29.72F
NWS OXNARD       N/A     77  59  53 CALM      29.71F
OXNARD AIRPORT SUNNY     74  60  61 W15       29.72F
SBA APT/GOLETA SUNNY     80  60  50 W16G23    29.70F
*SANTA BARBARA   N/A     90  57  32 NE3       29.77S
*VENTURA         N/A     83  57  41 SW12      29.75S

$$

CAZ044-045-180100-
VENTURA COUNTY VALLEYS


CITY           SKY/WX    TMP DP  RH WIND       PRES   REMARKS
*SIMI VALLEY     N/A     86  53  31 W3        29.66S
*OJAI            N/A     94  56  27 CALM      29.63S HX  92
*FILLMORE        N/A     90  60  36 CALM      29.61R

$$

CAZ053-180100-
VENTURA COUNTY MOUNTAINS


CITY           SKY/WX    TMP DP  RH WIND       PRES   REMARKS
*LOCKWOOD VLY    N/A     81  41  24 MISG        N/A
*ROSE VALLEY     N/A     90  50  25 MISG        N/A

$$

CAZ034-035-036-180100-
CENTRAL COAST AND SANTA YNEZ VALLEY


CITY           SKY/WX    TMP DP  RH WIND       PRES   REMARKS
SAN LUIS OBISP SUNNY     72  56  57 NW15      29.80F
SANTA MARIA    SUNNY     72  59  63 W14       29.83R

CITY           SKY/WX    TMP DP  RH WIND       PRES   REMARKS
*CAL POLY SLO    N/A     75  59  57 W7          N/A
*LOMPOC        SUNNY     68  57  68 W16       29.83S
*PISMO BEACH     N/A     66  61  83 S3        29.82F
*SANTA YNEZ    FAIR      86  54  32 W14       29.79S

$$

CAZ037-038-051-180100-
SAN LUIS OBISPO COUNTY INTERIOR AND CUYAMA VALLEY


CITY           SKY/WX    TMP DP  RH WIND       PRES   REMARKS
*CUYAMA          N/A     89  46  22 NW10      29.68S
PASO ROBLES    SUNNY     87  52  29 S16       29.77S

$$

CAZ032-033-061-180100-
SOUTHERN DESERTS


CITY           SKY/WX    TMP DP  RH WIND       PRES   REMARKS
BLYTHE         SUNNY     97  63  32 E3        29.67F HX  98
IMPERIAL       SUNNY    101  63  28 N7        29.62F HX 103
PALM SPRINGS   MOSUNNY  101  63  28 E12       29.66F HX 103
THERMAL        MOSUNNY  100  64  30 SE10      29.61F HX 102

$$

ELSEWHERE ACROSS THE WESTERN UNITED STATES AND MEXICO


CITY           SKY/WX    TMP DP  RH WIND       PRES   REMARKS
DENVER, CO     PTSUNNY   81  38  21 NE7       30.02R
GRAND CANYON,  SUNNY     73  46  38 E10       30.14R
HONOLULU, HI   LGT RAIN  84  72  65 W10       29.91F
KAHULUI, MAUI  MOSUNNY   88  72  58 NE14      29.93F HX  94
LAKE TAHOE, CA SUNNY     76  32  20 SW15G28   30.00F
LAS VEGAS, NV  MOSUNNY   97  52  21 S7        29.73F HX  94
MAMMOTH LAKES, FAIR      75  37  25 SW13G26   30.08F
MEXICO CITY, M PTCLDY    70  48  46 S15       30.25R
PHOENIX, AZ    PTSUNNY   86  70  58 E6        29.73F HX  90
PORTLAND, OR   CLOUDY    77  55  46 W8        29.71R
RENO, NV       MOSUNNY   88  35  15 W17G32    29.83F
SALT LAKE CITY MOSUNNY   92  39  15 N7        29.86F
SAN DIEGO, CA  MOSUNNY   80  66  62 NW13      29.74R
SAN FRANCISCO, MOSUNNY   78  57  48 SW20      29.75F
SAN JOSE, CA   MOSUNNY   82  55  39 NW7       29.73F
SEATTLE, WA    CLOUDY    69  54  58 NW12      29.74R
TIJUANA, MEX   MOSUNNY   82  63  51 W12       29.76S

$$

STATION/POSITION TIME  TEMP    WIND        PRES    VSBY  WAVE
                       AIR SEA DIR/SP/G                  HT/PER
                 (UTC) (F)     (DEG/KT/KT) (MB)    (MI)  (FT/S)
POINT ARGUELLO B NOT AVBL
WEST SANTA BARBA 0000   62 61  310/ 19/ 21 1008.0F         4/17
POINT CONCEPTION NOT AVBL
EAST SANTA BARBA 2200          260/ 19       N/A
SANTA MONICA BAY 0000   76 75  280/ 17/ 19 1005.7F         5/17


USA.gov is the U.S. government's official web portal to all federal, state and local government web resources and services.